Location: Unspecified
(0.0000°N, 0.0000°E)
Time: 21:34:22
(UTC+02:00)

Amateur Radio Satellites - All Passes

Search period start: 24 May 2016 21:04
Search period end: 25 May 2016 21:04
Location: Unspecified, 0.0000°N, 0.0000°E

Satellite Date Start Highest point End Downlink Frequencies (MHz)
Time Altitude Azimuth
HO-68 24 May 21:07:30 21:13:55 36° 75° (ENE) 21:20:16 435.675
JUGNU 24 May 21:09:01 21:11:17 12° 189° (S) 21:13:33 437.505
STRAND 1 24 May 21:10:10 21:15:13 61° 283° (WNW) 21:20:19 437.568
ISS 24 May 21:17:38 21:20:53 69° 125° (SE) 21:24:07 145.825
CANX-2 24 May 21:20:08 21:24:03 39° 79° (ENE) 21:27:58 2200.000
PCSat 24 May 21:21:56 21:23:36 11° 70° (ENE) 21:25:16 145.827
PRISM 24 May 21:25:18 21:28:33 22° 102° (ESE) 21:31:48 437.425
GOMX 1 24 May 21:29:18 21:32:38 17° 259° (W) 21:36:04 467.674
SEEDS 24 May 21:30:32 21:34:11 30° 79° (ENE) 21:37:49 437.485
PHONESAT 2.4 24 May 21:33:06 21:36:11 56° 317° (NW) 21:39:16 2401.200-2431.200
CUBEBUG 2 24 May 21:35:16 21:37:36 14° 79° (E) 21:39:53 437.445
CUTE 1.7 + AOD 2 24 May 21:47:48 21:52:01 88° 81° (E) 21:56:12 437.475
CINEMA 3 24 May 21:55:04 22:00:04 69° 258° (WSW) 22:04:57 145.822/145.860
UWE-3 24 May 22:10:09 22:13:57 26° 79° (E) 22:17:38 435.000/436.395/437.385
O/OREOS (USA 219) 24 May 22:13:06 22:17:19 42° 76° (ENE) 22:21:32 437.305
AIST 1 24 May 22:14:12 22:18:15 38° 94° (E) 22:22:19
COMPASS 1 24 May 22:22:56 22:27:02 65° 259° (W) 22:31:07 437.405
FUNcube-1 24 May 22:24:53 22:28:22 23° 79° (E) 22:31:44 145.935
AAUSAT CUBESAT 2 24 May 22:29:05 22:33:11 71° 258° (WSW) 22:37:15 437.432
AUBIESAT-1 24 May 22:30:20 22:32:52 15° 253° (WSW) 22:35:20 437.475
M-CUBED/EXP-1 PRIME 24 May 22:35:19 22:36:13 10° 253° (WSW) 22:37:06 437.505
GONETS M04 24 May 22:35:38 22:43:38 38° 93° (E) 22:51:33
SRMSAT 24 May 22:54:11 22:57:21 14° 191° (SSW) 23:00:31 437.500
HO-68 24 May 22:55:42 23:01:17 25° 255° (WSW) 23:06:52 435.675
PCSat 24 May 23:01:37 23:06:44 45° 251° (WSW) 23:11:53 145.827
PRISM 24 May 23:01:38 23:03:36 13° 282° (WNW) 23:05:33 437.425
Cosmos 2499 24 May 23:04:34 23:10:20 27° 93° (E) 23:16:07 435.465 / 435.565
TIGRISAT 24 May 23:05:37 23:07:12 12° 103° (ESE) 23:08:47 435.000
CUBEBUG 2 24 May 23:10:01 23:13:58 28° 258° (WSW) 23:17:50 437.445
Oscar 11 24 May 23:12:54 23:17:07 54° 258° (WSW) 23:21:18 145.826/435.025
ZACube-1 24 May 23:20:00 23:24:20 50° 258° (WSW) 23:28:32 437.345
DELFI C3 24 May 23:28:53 23:32:49 83° 259° (WSW) 23:36:44 145.870
ANTELSAT 24 May 23:35:39 23:39:39 35° 102° (ESE) 23:43:45 437.575/2403.000
UWE-3 24 May 23:47:49 23:50:06 14° 257° (WSW) 23:52:22 435.000/436.395/437.385
HUMSAT D 24 May 23:59:14 00:03:25 86° 252° (WSW) 00:07:32 437.325/437.525
FUNcube-1 25 May 00:01:47 00:04:18 15° 257° (WSW) 00:06:48 145.935
BEESAT 3 25 May 00:10:13 00:14:06 75° 68° (ENE) 00:18:00 437.485
ESTCUBE 1 25 May 00:19:47 00:23:01 20° 78° (ENE) 00:26:14 437.505/2401.250
DUCHIFAT 1 25 May 00:25:24 00:28:00 16° 102° (ESE) 00:30:37 145.980
UNISAT 6 25 May 00:30:49 00:34:48 35° 281° (WNW) 00:38:55 437.425
GONETS M04 25 May 00:32:55 00:40:02 28° 273° (W) 00:47:09
TIGRISAT 25 May 00:39:49 00:43:34 29° 281° (WNW) 00:47:27 435.000
DANDE 25 May 00:47:13 00:53:02 24° 81° (E) 00:58:04 436.750
JUGNU 25 May 00:48:29 00:51:33 14° 168° (SSE) 00:54:38 437.505
VELOX 1 25 May 00:55:47 00:59:54 38° 78° (ENE) 01:04:01 145.980
Cosmos 2499 25 May 00:57:22 01:03:04 27° 274° (W) 01:08:50 435.465 / 435.565
POPSAT HIP 1 25 May 00:57:53 01:02:00 57° 102° (ESE) 01:06:08 437.405
CUBEBUG 1 25 May 00:58:04 01:02:15 42° 78° (ENE) 01:06:24 437.445
BUGSAT 1 25 May 00:58:09 01:00:50 17° 102° (ESE) 01:03:30 437.445
QB50P1 25 May 00:58:37 01:02:45 61° 102° (ESE) 01:06:54 145.935-145.965
QB50P2 25 May 00:59:37 01:03:47 68° 101° (E) 01:07:59 145.880/145.840
50 SAT 25 May 01:00:32 01:04:04 52° 79° (ENE) 01:07:35 437.505
POLYITAN 1 25 May 01:02:02 01:06:12 70° 102° (ESE) 01:10:25 437.675
DX 1 25 May 01:02:33 01:06:37 38° 78° (ENE) 01:10:40 434.975-435.025
BEESAT 2 25 May 01:06:25 01:09:59 32° 248° (WSW) 01:13:32 435.950
NANOSAT C BR1 25 May 01:19:03 01:23:11 69° 282° (WNW) 01:27:23 145.865
CUSAT 1 25 May 01:24:41 01:31:09 61° 267° (W) 01:36:06 437.405
SO-50 25 May 01:26:58 01:31:39 55° 292° (WNW) 01:36:25 436.795
AISAT 25 May 01:31:04 01:35:29 61° 258° (WSW) 01:39:53 437.250
JAS-2 25 May 01:40:57 01:45:52 23° 101° (E) 01:50:22 435.910
SPROUT 25 May 01:40:57 01:45:09 50° 78° (ENE) 01:49:19 437.525
ESTCUBE 1 25 May 01:56:27 01:59:33 18° 258° (WSW) 02:02:39 437.505/2401.250
UKube-1 25 May 01:58:14 02:02:20 41° 258° (WSW) 02:06:24 .
DUCHIFAT 1 25 May 02:00:31 02:03:26 19° 282° (WNW) 02:06:22 145.980
TISAT 1 25 May 02:18:15 02:22:04 32° 78° (ENE) 02:25:50 437.305
DANDE 25 May 02:28:49 02:35:44 37° 269° (W) 02:41:28 436.750
BUGSAT 1 25 May 02:33:32 02:35:57 16° 282° (WNW) 02:38:23 437.445
SRMSAT 25 May 02:35:25 02:38:00 13° 171° (S) 02:40:35 437.500
JUGNU 25 May 02:35:58 02:41:08 31° 161° (SSE) 02:46:20 437.505
AIST 2 25 May 02:47:07 02:51:08 51° 248° (WSW) 02:55:09 435.215
SWISSCUBE 25 May 02:59:56 03:02:49 16° 77° (ENE) 03:05:42 437.505
ITUPSAT 1 25 May 03:04:18 03:07:07 16° 77° (ENE) 03:09:54 437.325
Gurwin Techsat 1B 25 May 03:11:03 03:15:41 31° 103° (ESE) 03:20:19 435.225
Oscar 19 25 May 03:14:57 03:20:03 74° 282° (WNW) 03:25:11 437.125/150
JAS-2 25 May 03:24:53 03:30:41 31° 285° (WNW) 03:35:57 435.910
BEESAT 25 May 03:28:37 03:32:55 35° 78° (ENE) 03:37:12 436.000
ITAMSAT 1 25 May 03:49:52 03:54:15 27° 103° (ESE) 03:58:38 435.822/435.867
Cosmos 2491 25 May 03:55:39 03:57:17 11° 93° (E) 03:58:56 435.465 / 435.565
AO-7 25 May 04:21:01 04:27:34 26° 107° (ESE) 04:34:07 29.400- 29.500
SRMSAT 25 May 04:23:01 04:27:55 25° 163° (SSE) 04:32:48 437.500
RS-15 25 May 04:23:47 04:32:47 24° 67° (ENE) 04:41:30 29.354- 29.394
JUGNU 25 May 04:24:19 04:30:17 82° 159° (SSE) 04:36:18 437.505
SWISSCUBE 25 May 04:36:28 04:40:21 25° 257° (WSW) 04:44:13 437.505
ITUPSAT 1 25 May 04:40:44 04:44:41 26° 257° (WSW) 04:48:37 437.325
Gurwin Techsat 1B 25 May 04:52:03 04:55:21 17° 283° (WNW) 04:58:39 435.225
BEESAT 25 May 05:08:50 05:10:25 12° 257° (WSW) 05:12:00 436.000
MOZHAYETS 4 25 May 05:09:16 05:13:25 35° 78° (ENE) 05:17:32
KKS-1 25 May 05:17:24 05:21:54 73° 77° (ENE) 05:26:21 437.445
YUBILEINY 25 May 05:18:58 05:27:34 61° 87° (E) 05:36:14 435.215
HORYU 2 25 May 05:24:08 05:24:49 10° 103° (ESE) 05:25:30 437.375
ITAMSAT 1 25 May 05:29:53 05:33:26 19° 283° (WNW) 05:37:00 435.822/435.867
Cosmos 2491 25 May 05:44:54 05:53:44 78° 273° (W) 06:02:34 435.465 / 435.565
STARS 25 May 06:02:07 06:06:30 62° 258° (WSW) 06:10:52 437.465
SRMSAT 25 May 06:11:21 06:17:19 65° 159° (SSE) 06:23:16 437.500
AO-7 25 May 06:12:13 06:19:57 43° 286° (WNW) 06:27:44 29.400- 29.500
JUGNU 25 May 06:13:55 06:19:24 37° 340° (NNW) 06:24:54 437.505
CUBESAT XI-V 25 May 06:26:07 06:29:47 23° 78° (ENE) 06:33:28 437.345
Cosmos 2504 25 May 06:28:01 06:36:19 47° 87° (E) 06:44:41 435.465 / 435.565
RS-15 25 May 06:32:57 06:44:58 63° 250° (WSW) 06:56:35 29.354- 29.394
MOZHAYETS 4 25 May 06:49:58 06:50:17 10° 258° (WSW) 06:50:37
AO-85 25 May 06:51:42 06:56:53 74° 292° (WNW) 07:02:17 145.980
HORYU 2 25 May 06:57:06 07:01:05 33° 282° (WNW) 07:05:06 437.375
NOAA 18 25 May 07:05:23 07:09:51 26° 104° (ESE) 07:14:19 137.9125
YUBILEINY 25 May 07:19:15 07:23:59 16° 267° (W) 07:28:47 435.215
Cubesat XI-IV 25 May 07:32:30 07:37:29 40° 103° (ESE) 07:42:30 437.490
BRITE-PL 25 May 07:33:55 07:38:19 43° 101° (E) 07:42:27 437.365/2234.400
NOAA 15 25 May 07:38:58 07:44:15 81° 103° (ESE) 07:49:31 137.62
SRMSAT 25 May 08:00:49 08:06:33 46° 339° (NNW) 08:12:16 437.500
CUBESAT XI-V 25 May 08:04:02 08:06:54 16° 258° (WSW) 08:09:46 437.345
JUGNU 25 May 08:05:13 08:08:55 17° 347° (NNW) 08:12:36 437.505
STRAND 1 25 May 08:05:19 08:08:59 20° 77° (ENE) 08:12:39 437.568
LilacSat-2 25 May 08:08:51 08:12:34 59° 281° (W) 08:16:20 437.200
GOMX 1 25 May 08:14:37 08:18:51 57° 101° (ESE) 08:22:58 467.674
CUTE-I 25 May 08:19:32 08:24:44 55° 283° (WNW) 08:30:00 437.470
Cosmos 2504 25 May 08:22:47 08:29:19 23° 267° (W) 08:35:57 435.465 / 435.565
NOAA 18 25 May 08:46:05 08:50:14 22° 283° (WNW) 08:54:24 137.9125
ISS 25 May 08:51:26 08:54:29 38° 55° (NE) 08:57:32 145.825
AUBIESAT-1 25 May 08:55:05 08:57:31 19° 107° (ESE) 09:00:03 437.475
M-CUBED/EXP-1 PRIME 25 May 08:58:27 09:01:20 28° 106° (ESE) 09:04:22 437.505
HO-68 25 May 08:59:19 09:05:24 30° 105° (ESE) 09:11:28 435.675
PHONESAT 2.4 25 May 09:02:06 09:05:11 79° 42° (NE) 09:08:17 2401.200-2431.200
Cubesat XI-IV 25 May 09:14:55 09:17:16 13° 283° (WNW) 09:19:37 437.490
DOVE 4 25 May 09:19:12 09:23:09 43° 282° (WNW) 09:27:05 437.250
CANX-2 25 May 09:26:19 09:30:28 50° 102° (ESE) 09:34:39 2200.000
PRISM 25 May 09:28:03 09:31:24 24° 78° (ENE) 09:34:44 437.425
SEEDS 25 May 09:35:32 09:39:27 36° 102° (ESE) 09:43:23 437.485
STRAND 1 25 May 09:43:52 09:47:54 24° 257° (WSW) 09:51:55 437.568
CUBEBUG 2 25 May 09:46:37 09:49:35 18° 103° (ESE) 09:52:36 437.445
SRMSAT 25 May 09:51:54 09:56:04 19° 345° (NNW) 10:00:15 437.500
CUTE 1.7 + AOD 2 25 May 09:54:02 09:58:18 74° 282° (WNW) 10:02:36 437.475
PCSat 25 May 09:54:53 09:59:49 36° 109° (ESE) 10:04:44 145.827
JUGNU 25 May 09:58:27 09:58:57 10° 356° (N) 09:59:27 437.505
CINEMA 3 25 May 10:12:12 10:16:01 37° 281° (W) 10:19:56 145.822/145.860
AIST 1 25 May 10:20:41 10:24:53 55° 86° (E) 10:29:05
UWE-3 25 May 10:20:46 10:24:40 35° 102° (ESE) 10:28:42 435.000/436.395/437.385
O/OREOS (USA 219) 25 May 10:23:48 10:28:24 77° 105° (ESE) 10:32:58 437.305
COMPASS 1 25 May 10:27:07 10:31:14 56° 281° (W) 10:35:23 437.405
AAUSAT CUBESAT 2 25 May 10:32:40 10:36:48 62° 282° (WNW) 10:40:58 437.432
FUNcube-1 25 May 10:33:45 10:37:30 30° 102° (ESE) 10:41:20 145.935
HO-68 25 May 10:46:44 10:52:46 30° 285° (WNW) 10:58:52 435.675
PRISM 25 May 11:04:56 11:06:26 12° 258° (WSW) 11:07:56 437.425
GONETS M04 25 May 11:08:27 11:17:06 73° 87° (E) 11:25:47
UNISAT 6 25 May 11:09:22 11:12:01 15° 79° (ENE) 11:14:38 437.425
Cosmos 2499 25 May 11:11:57 11:20:11 43° 87° (E) 11:28:19 435.465 / 435.565
TIGRISAT 25 May 11:17:27 11:20:37 19° 79° (ENE) 11:23:43 435.000
Oscar 11 25 May 11:21:39 11:25:44 40° 282° (WNW) 11:29:50 145.826/435.025
CUBEBUG 2 25 May 11:23:08 11:25:56 17° 281° (W) 11:28:50 437.445
DELFI C3 25 May 11:27:42 11:31:44 86° 277° (W) 11:35:46 145.870
ZACube-1 25 May 11:29:52 11:33:46 36° 281° (W) 11:37:48 437.345
PCSat 25 May 11:40:05 11:42:57 14° 290° (WNW) 11:45:49 145.827
SRMSAT 25 May 11:44:52 11:46:09 11° 354° (N) 11:47:26 437.500
JUGNU 25 May 11:47:23 11:49:11 11° 7° (N) 11:50:59 437.505
ANTELSAT 25 May 11:48:51 11:53:20 56° 78° (ENE) 11:57:41 437.575/2403.000
SO-50 25 May 12:02:20 12:04:21 13° 67° (ENE) 12:06:21 436.795
BEESAT 3 25 May 12:02:45 12:06:39 77° 113° (ESE) 12:10:33 437.485
HUMSAT D 25 May 12:03:50 12:08:00 74° 283° (WNW) 12:12:17 437.325/437.525
FUNcube-1 25 May 12:12:36 12:13:30 11° 281° (W) 12:14:26 145.935
CUSAT 1 25 May 12:21:04 12:24:19 20° 89° (E) 12:28:11 437.405
DUCHIFAT 1 25 May 12:30:33 12:33:40 20° 78° (ENE) 12:36:45 145.980
ESTCUBE 1 25 May 12:33:08 12:37:06 30° 102° (ESE) 12:41:03 437.505/2401.250
UKube-1 25 May 12:34:53 12:35:03 10° 103° (ESE) 12:35:14 .
UNISAT 6 25 May 12:44:49 12:48:29 24° 258° (WSW) 12:52:04 437.425
50 SAT 25 May 12:50:58 12:54:25 36° 102° (ESE) 12:57:53 437.505
TIGRISAT 25 May 12:53:45 12:57:02 20° 257° (WSW) 13:00:17 435.000
BEESAT 2 25 May 13:00:09 13:03:39 30° 292° (WNW) 13:07:08 435.950
BUGSAT 1 25 May 13:00:52 13:04:03 21° 78° (ENE) 13:07:14 437.445
POPSAT HIP 1 25 May 13:04:04 13:08:21 73° 79° (E) 13:12:35 437.405
QB50P1 25 May 13:04:46 13:09:02 77° 78° (ENE) 13:13:17 145.935-145.965
QB50P2 25 May 13:06:00 13:10:18 86° 76° (ENE) 13:14:33 145.880/145.840
Cosmos 2499 25 May 13:06:00 13:12:53 26° 267° (W) 13:19:46 435.465 / 435.565
VELOX 1 25 May 13:07:13 13:11:31 55° 102° (ESE) 13:15:49 145.980
CUBEBUG 1 25 May 13:08:05 13:12:20 59° 102° (ESE) 13:16:35 437.445
POLYITAN 1 25 May 13:08:26 13:12:44 88° 68° (ENE) 13:16:59 437.675
GONETS M04 25 May 13:10:56 13:13:33 12° 267° (W) 13:16:12
DX 1 25 May 13:12:00 13:16:12 52° 102° (ESE) 13:20:25 434.975-435.025
JAS-2 25 May 13:14:36 13:16:48 12° 73° (ENE) 13:19:04 435.910
NANOSAT C BR1 25 May 13:24:58 13:29:08 56° 258° (WSW) 13:33:18 145.865
DANDE 25 May 13:30:37 13:33:56 46° 92° (E) 13:38:14 436.750
JUGNU 25 May 13:34:38 13:39:02 21° 16° (NNE) 13:43:24 437.505
SRMSAT 25 May 13:35:48 13:36:32 10° 5° (N) 13:37:16 437.500
SO-50 25 May 13:40:49 13:44:34 27° 248° (WSW) 13:48:17 436.795
AISAT 25 May 13:43:04 13:47:10 40° 282° (WNW) 13:51:18 437.250
SPROUT 25 May 13:48:18 13:52:30 65° 102° (ESE) 13:56:43 437.525
CUSAT 1 25 May 14:03:04 14:06:09 18° 282° (WNW) 14:09:45 437.405
DUCHIFAT 1 25 May 14:06:28 14:09:05 16° 258° (WSW) 14:11:42 145.980
UKube-1 25 May 14:07:01 14:10:50 31° 282° (WNW) 14:14:39 .
Oscar 19 25 May 14:11:21 14:14:44 18° 77° (ENE) 14:18:05 437.125/150
ESTCUBE 1 25 May 14:11:58 14:13:37 12° 282° (WNW) 14:15:18 437.505/2401.250
TISAT 1 25 May 14:23:26 14:27:16 37° 102° (ESE) 14:31:08 437.305
BUGSAT 1 25 May 14:36:38 14:39:10 15° 258° (WSW) 14:41:40 437.445
AIST 2 25 May 14:45:39 14:49:31 40° 292° (WNW) 14:53:23 435.215
JAS-2 25 May 14:54:58 15:01:09 64° 258° (WSW) 15:08:10 435.910
SWISSCUBE 25 May 15:20:30 15:24:43 31° 102° (ESE) 15:28:57 437.505
JUGNU 25 May 15:22:36 15:28:20 52° 21° (NNE) 15:34:02 437.505
SRMSAT 25 May 15:22:45 15:26:39 18° 14° (NNE) 15:30:32 437.500
ITUPSAT 1 25 May 15:25:07 15:29:20 31° 103° (ESE) 15:33:32 437.325
Gurwin Techsat 1B 25 May 15:48:54 15:54:14 90° 257° (WSW) 15:59:33 435.225
Oscar 19 25 May 15:49:21 15:53:46 28° 257° (WSW) 15:58:11 437.125/150
BEESAT 25 May 15:49:59 15:54:44 69° 102° (ESE) 15:59:31 436.000
YUBILEINY 25 May 16:02:06 16:04:49 12° 93° (E) 16:07:32 435.215
RS-15 25 May 16:07:58 16:14:04 16° 112° (ESE) 16:20:12 29.354- 29.394
ITAMSAT 1 25 May 16:24:09 16:29:18 73° 77° (ENE) 16:34:27 435.822/435.867
Cosmos 2491 25 May 16:24:16 16:31:00 25° 87° (E) 16:37:43 435.465 / 435.565
AO-7 25 May 16:46:18 16:53:58 42° 74° (ENE) 17:01:35 29.400- 29.500
SWISSCUBE 25 May 16:59:57 17:02:14 13° 283° (WNW) 17:04:31 437.505
ITUPSAT 1 25 May 17:04:30 17:06:53 14° 283° (WNW) 17:09:17 437.325
SRMSAT 25 May 17:10:39 17:16:12 41° 20° (NNE) 17:21:45 437.500
JUGNU 25 May 17:11:36 17:17:22 57° 201° (SSW) 17:23:07 437.505
MOZHAYETS 4 25 May 17:25:27 17:30:02 61° 102° (ESE) 17:34:38
KKS-1 25 May 17:29:53 17:34:17 75° 283° (WNW) 17:38:42 437.445
HORYU 2 25 May 17:34:42 17:37:22 16° 78° (ENE) 17:40:00 437.375
YUBILEINY 25 May 17:52:33 18:01:15 73° 273° (W) 18:09:53 435.215
STARS 25 May 18:13:12 18:17:18 42° 282° (WNW) 18:21:26 437.465
RS-15 25 May 18:15:10 18:26:01 74° 291° (WNW) 18:37:20 29.354- 29.394
Cosmos 2491 25 May 18:19:31 18:27:26 40° 267° (W) 18:35:25 435.465 / 435.565
NOAA 15 25 May 18:39:22 18:42:07 14° 77° (ENE) 18:44:52 137.62
AO-7 25 May 18:39:53 18:46:21 26° 253° (WSW) 18:52:51 29.400- 29.500
Cosmos 2504 25 May 18:40:54 18:47:57 56° 93° (E) 18:54:54 435.465 / 435.565
CUBESAT XI-V 25 May 18:43:43 18:48:07 41° 102° (ESE) 18:52:30 437.345
SRMSAT 25 May 18:59:31 19:05:25 72° 202° (SSW) 19:11:21 437.500
JUGNU 25 May 19:02:08 19:06:36 22° 197° (SSW) 19:11:06 437.505
AO-85 25 May 19:06:43 19:10:16 31° 249° (WSW) 19:13:40 145.980
HORYU 2 25 May 19:10:11 19:13:40 23° 257° (WSW) 19:17:08 437.375
CUTE-I 25 May 19:19:54 19:24:24 28° 77° (ENE) 19:28:52 437.470
NOAA 18 25 May 19:48:53 19:54:25 84° 77° (ENE) 19:59:53 137.9125
BRITE-PL 25 May 19:58:46 20:03:57 81° 258° (WSW) 20:09:29 437.365/2234.400
DOVE 4 25 May 20:02:40 20:06:19 19° 78° (ENE) 20:09:56 437.250
LilacSat-2 25 May 20:03:26 20:07:18 73° 259° (WSW) 20:11:06 437.200
Cubesat XI-IV 25 May 20:11:50 20:17:08 68° 257° (WSW) 20:22:23 437.490
NOAA 15 25 May 20:16:49 20:21:36 36° 257° (WSW) 20:26:24 137.62
ISS 25 May 20:25:32 20:28:12 23° 126° (SE) 20:30:50 145.825
PHONESAT 2.4 25 May 20:31:14 20:34:14 42° 137° (SE) 20:37:14 2401.200-2431.200
STRAND 1 25 May 20:36:32 20:41:31 51° 103° (ESE) 20:46:31 437.568
GOMX 1 25 May 20:36:41 20:41:57 69° 259° (W) 20:47:23 467.674
Cosmos 2504 25 May 20:38:26 20:40:55 12° 273° (W) 20:43:25 435.465 / 435.565
SRMSAT 25 May 20:49:49 20:54:46 27° 198° (SSW) 20:59:45 437.500
HO-68 25 May 20:51:28 20:57:04 25° 75° (ENE) 21:02:38 435.675
CINEMA 3 25 May 20:52:33 20:55:51 18° 79° (E) 20:59:05 145.822/145.860
AUBIESAT-1 25 May 20:53:53 20:57:37 25° 76° (ENE) 21:01:11 437.475
JUGNU 25 May 20:54:31 20:56:23 11° 188° (S) 20:58:16 437.505
